Date String (YYYY-MM-DD hh:mm:ss) UTC,Instrument flags,absolute air pressure of the measurement (hPa),sample flow rate (lpm),inlet stack bypass flow (lpm),air temperature of the measurement (°C),ambient temperature measured by the external sensor (°C),aerosol sample conditioner tube jacket temperature (°C),OPC LED temperature (°C),internal box temperature (°C),relative humidity of the measurement (%),span deviation,mass concentration of particles derived from Lorenz-Mie calculation of OPC scattering (μg/m³),mass concentration of particles derived from Lorenz-Mie calculation of OPC scattering (μg/m³),mass concentration of particles derived from Lorenz-Mie calculation of OPC scattering (μg/m³)
DateTimeUTC,F1_M11,P_M11,Q1_M11,Q2_M11,T1_M11,T2_M11,T3_M11,T4_M11,T5_M11,U1_M11,ZSPAN_M11,X0_M11,X2_M11,X1_M11
2023-07-29 22:00:00,SystemResetWarning,0837.2,5.00,000.00,030.2,026.9,000.0,038.3,030.9,33.2,0000.0,0015.58,0005.71,0004.59
2023-07-29 22:01:00,SystemResetWarning,0837.2,5.00,000.00,030.2,027.3,000.0,038.3,031.0,32.4,0000.0,0015.96,0005.72,0004.59
2023-07-29 22:02:00,SystemResetWarning,0837.2,5.00,000.00,030.2,027.6,000.0,038.3,031.1,32.5,0000.0,0016.33,0005.75,0004.60
2023-07-29 22:03:00,SystemResetWarning,0837.2,4.99,000.00,030.2,027.3,000.0,038.3,031.1,32.7,0000.0,0016.73,0005.79,0004.60
2023-07-29 22:04:00,SystemResetWarning,0837.2,5.00,000.00,030.2,025.9,000.0,038.2,030.9,32.6,0000.0,0017.51,0005.77,0004.58
2023-07-29 22:05:00,SystemResetWarning,0837.1,5.00,000.00,030.1,025.2,000.0,038.1,030.7,32.2,0000.0,0017.02,0005.74,0004.56
2023-07-29 22:06:00,SystemResetWarning,0837.1,5.01,000.00,030.0,025.3,000.0,038.0,030.5,32.3,0000.0,0016.48,0005.72,0004.55
2023-07-29 22:07:00,SystemResetWarning,0837.1,5.01,000.00,029.9,025.6,000.0,038.1,030.5,32.1,0000.0,0016.57,0005.66,0004.54
2023-07-29 22:08:00,SystemResetWarning,0837.1,4.99,000.00,029.8,026.1,000.0,038.1,030.6,32.9,0000.0,0016.54,0005.60,0004.52
2023-07-29 22:09:00,SystemResetWarning,0837.1,5.00,000.00,029.8,026.5,000.0,038.1,030.7,33.4,0000.0,0016.53,0005.55,0004.51
2023-07-29 22:10:00,SystemResetWarning,0837.0,5.00,000.00,029.8,027.0,000.0,038.1,030.8,32.4,0000.0,0016.20,0005.55,0004.50
2023-07-29 22:11:00,SystemResetWarning,0837.1,5.01,000.00,029.8,027.3,000.0,038.1,030.9,33.0,0000.0,0015.84,0005.52,0004.49
2023-07-29 22:12:00,SystemResetWarning,0837.1,5.00,000.00,029.9,027.6,000.0,038.1,031.0,33.2,0000.0,0014.57,0005.50,0004.49
2023-07-29 22:13:00,SystemResetWarning,0837.0,4.98,000.00,029.9,026.8,000.0,038.0,031.0,33.0,0000.0,0014.14,0005.48,0004.50
2023-07-29 22:14:00,SystemResetWarning,0836.9,5.00,000.00,029.8,025.4,000.0,037.9,030.7,32.7,0000.0,0014.32,0005.46,0004.51
2023-07-29 22:15:00,SystemResetWarning,0836.9,5.01,000.00,029.7,025.0,000.0,037.8,030.5,31.9,0000.0,0013.86,0005.47,0004.52
2023-07-29 22:16:00,SystemResetWarning,0836.9,5.01,000.00,029.6,025.3,000.0,037.8,030.3,32.4,0000.0,0014.52,0005.49,0004.53
2023-07-29 22:17:00,SystemResetWarning,0837.0,5.01,000.00,029.5,025.7,000.0,037.9,030.4,32.9,0000.0,0014.25,0005.46,0004.51
2023-07-29 22:18:00,SystemResetWarning,0837.0,5.00,000.00,029.5,026.2,000.0,037.9,030.5,33.1,0000.0,0014.11,0005.46,0004.49
2023-07-29 22:19:00,SystemResetWarning,0837.0,5.00,000.00,029.5,026.6,000.0,037.9,030.6,33.0,0000.0,0013.87,0005.49,0004.50
2023-07-29 22:20:00,SystemResetWarning,0837.0,4.99,000.00,029.5,027.0,000.0,037.9,030.7,32.8,0000.0,0013.39,0005.49,0004.50
2023-07-29 22:21:00,SystemResetWarning,0837.0,4.99,000.00,029.6,027.4,000.0,037.9,030.8,33.1,0000.0,0013.12,0005.46,0004.49
2023-07-29 22:22:00,SystemResetWarning,0837.1,4.99,000.00,029.6,027.4,000.0,037.9,030.9,33.6,0000.0,0013.04,0005.42,0004.49
2023-07-29 22:23:00,SystemResetWarning,0837.0,5.00,000.00,029.6,026.1,000.0,037.7,030.7,34.0,0000.0,0014.90,0005.46,0004.49
2023-07-29 22:24:00,SystemResetWarning,0837.0,5.00,000.00,029.5,025.1,000.0,037.6,030.6,35.3,0000.0,0015.48,0005.45,0004.48
2023-07-29 22:25:00,SystemResetWarning,0836.9,5.03,000.00,029.6,025.0,000.0,037.6,030.4,36.9,0000.0,0015.23,0005.44,0004.48
2023-07-29 22:26:00,SystemResetWarning,0837.0,4.97,000.00,029.8,025.4,000.0,037.6,030.5,37.2,0000.0,0015.68,0005.43,0004.46
2023-07-29 22:27:00,SystemResetWarning,0837.0,5.00,000.00,030.1,025.8,000.0,037.7,030.7,35.3,0000.0,0014.71,0005.43,0004.46
2023-07-29 22:28:00,SystemResetWarning,0837.0,5.01,000.00,030.5,026.3,000.0,037.7,030.9,34.4,0000.0,0015.00,0005.44,0004.47
2023-07-29 22:29:00,SystemResetWarning,0837.0,4.98,000.00,030.7,026.8,000.0,037.8,031.0,34.3,0000.0,0014.55,0005.45,0004.47
2023-07-29 22:30:00,SystemResetWarning,0837.0,5.03,000.00,030.9,027.2,000.0,037.9,031.1,33.9,0000.0,0014.84,0005.43,0004.47
2023-07-29 22:31:00,SystemResetWarning,0837.1,4.99,000.00,031.0,027.5,000.0,038.1,031.2,33.6,0000.0,0015.08,0005.39,0004.47
2023-07-29 22:32:00,SystemResetWarning,0837.1,4.99,000.00,031.1,027.8,000.0,038.2,031.3,33.6,0000.0,0015.21,0005.40,0004.46
2023-07-29 22:33:00,SystemResetWarning,0837.1,5.00,000.00,031.1,027.3,000.0,038.3,031.3,33.7,0000.0,0015.45,0005.41,0004.46
2023-07-29 22:34:00,SystemResetWarning,0837.0,5.01,000.00,031.2,025.9,000.0,038.3,031.0,34.0,0000.0,0013.58,0005.38,0004.45
2023-07-29 22:35:00,SystemResetWarning,0836.9,5.00,000.00,031.1,025.2,000.0,038.2,030.9,34.0,0000.0,0012.88,0005.40,0004.45
2023-07-29 22:36:00,SystemResetWarning,0836.9,5.01,000.00,031.0,025.3,000.0,038.3,030.7,34.2,0000.0,0012.71,0005.43,0004.44
2023-07-29 22:37:00,SystemResetWarning,0836.9,5.00,000.00,030.9,025.7,000.0,038.4,030.7,34.1,0000.0,0011.78,0005.39,0004.44
2023-07-29 22:38:00,SystemResetWarning,0836.9,5.00,000.00,030.9,026.2,000.0,038.5,030.9,33.0,0000.0,0011.56,0005.34,0004.43
2023-07-29 22:39:00,SystemResetWarning,0837.0,5.00,000.00,030.9,026.6,000.0,038.6,031.0,33.1,0000.0,0012.05,0005.33,0004.43
2023-07-29 22:40:00,SystemResetWarning,0837.0,5.00,000.00,030.9,027.0,000.0,038.6,031.1,33.0,0000.0,0012.43,0005.32,0004.43
2023-07-29 22:41:00,SystemResetWarning,0837.1,5.00,000.00,031.0,027.4,000.0,038.7,031.2,33.0,0000.0,0012.90,0005.35,0004.43
2023-07-29 22:42:00,SystemResetWarning,0837.1,5.01,000.00,031.0,027.7,000.0,038.7,031.3,33.0,0000.0,0012.40,0005.37,0004.44
2023-07-29 22:43:00,SystemResetWarning,0837.1,5.00,000.00,031.0,027.4,000.0,038.7,031.3,33.6,0000.0,0012.28,0005.38,0004.45
2023-07-29 22:44:00,SystemResetWarning,0837.1,4.98,000.00,031.0,026.0,000.0,038.6,031.1,33.3,0000.0,0012.23,0005.37,0004.46
2023-07-29 22:45:00,SystemResetWarning,0837.0,5.01,000.00,030.9,025.3,000.0,038.5,030.9,33.9,0000.0,0012.71,0005.36,0004.45
2023-07-29 22:46:00,SystemResetWarning,0837.0,5.02,000.00,030.8,025.3,000.0,038.5,030.7,34.3,0000.0,0012.91,0005.35,0004.43
2023-07-29 22:47:00,SystemResetWarning,0837.0,4.99,000.00,030.6,025.7,000.0,038.5,030.7,35.0,0000.0,0012.87,0005.32,0004.41
2023-07-29 22:48:00,SystemResetWarning,0836.9,5.01,000.00,030.7,026.1,000.0,038.6,030.8,34.8,0000.0,0012.93,0005.35,0004.41
2023-07-29 22:49:00,SystemResetWarning,0836.9,4.98,000.00,030.7,026.6,000.0,038.6,031.0,35.3,0000.0,0013.13,0005.39,0004.41
2023-07-29 22:50:00,SystemResetWarning,0837.1,5.02,000.00,030.9,027.0,000.0,038.6,031.2,34.3,0000.0,0012.46,0005.39,0004.39
2023-07-29 22:51:00,SystemResetWarning,0837.1,4.98,000.00,031.0,027.4,000.0,038.7,031.3,36.2,0000.0,0012.41,0005.43,0004.40
2023-07-29 22:52:00,SystemResetWarning,0837.1,5.03,000.00,031.2,027.7,000.0,038.7,031.4,39.1,0000.0,0012.53,0005.43,0004.40
2023-07-29 22:53:00,SystemResetWarning,0837.0,4.97,000.00,031.5,027.6,000.0,038.7,031.6,39.5,0000.0,0012.79,0005.48,0004.40
2023-07-29 22:54:00,SystemResetWarning,0836.9,5.01,000.00,031.8,026.3,000.0,038.7,031.4,38.3,0000.0,0012.97,0005.48,0004.38
2023-07-29 22:55:00,SystemResetWarning,0836.9,5.01,000.00,032.2,025.4,000.0,038.6,031.4,35.0,0000.0,0012.98,0005.52,0004.38
2023-07-29 22:56:00,SystemResetWarning,0836.9,4.98,000.00,032.4,025.4,000.0,038.7,031.3,36.7,0000.0,0012.64,0005.55,0004.40
2023-07-29 22:57:00,SystemResetWarning,0836.9,5.02,000.00,032.6,025.7,000.0,038.9,031.3,37.5,0000.0,0012.55,0005.57,0004.44
2023-07-29 22:58:00,SystemResetWarning,0836.8,4.98,000.00,032.9,026.1,000.0,039.0,031.5,36.8,0000.0,0013.55,0005.60,0004.48
2023-07-29 22:59:00,SystemResetWarning,0836.8,4.99,000.00,033.2,026.6,000.0,039.2,031.7,35.9,0000.0,0014.87,0005.62,0004.49
